Grand Junction, CO

10:18 AM MST on December 05, 2016 (GMT -0700)
Walker

Weather History for KGJT - December, 2013

Change the Weather History Date:

Thursday, December 19, 2013

  Actual Average Record
Temperature  
Mean Temperature 24 °F 28 °F  
Max Temperature 32 °F 38 °F 56 °F (1921)
Min Temperature 15 °F 18 °F -1 °F (1919)
Degree Days  
Heating Degree Days 41 37  
Month to date heating degree days 974 674  
Since 1 July heating degree days 2313 1902  
Cooling Degree Days 0 0  
Month to date cooling degree days 0 0  
Year to date cooling degree days 1269 1125  
Moisture  
Dew Point 21 °F    
Average Humidity 79    
Maximum Humidity 92    
Minimum Humidity 66    
Precipitation  
Precipitation 0.00 in 0.02 in 0.32 in (2012)
Month to date precipitation 0.93 0.37  
Year to date precipitation 12.40 9.20  
Snow  
Snow 0.00 in 0.20 in 3.70 in (2012)
Month to date snowfall 10.0 2.6  
Since 1 July snowfall 14.8 5.1  
Snow Depth 4.00 in    
Sea Level Pressure  
Sea Level Pressure 29.84 in    
Wind  
Wind Speed 3 mph (NE)    
Max Wind Speed 14 mph    
Max Gust Speed 15 mph    
Visibility 4 miles    
Events      
T = Trace of Precipitation, MM = Missing Value Source: NWS Daily Summary

Daily Weather History Graph

Daily Weather History Graph

Search for Another Location

Airport or City:

Trip Planner

Search our weather history database for the weather conditions in past years. The results will help you decide how hot, cold, wet, or windy it might be!

Date:

Astronomy

Dec. 19, 2013 Rise Set
Actual Time 7:28 AM MST 4:54 PM MST
Civil Twilight 6:58 AM MST 5:24 PM MST
Nautical Twilight 6:25 AM MST 5:57 PM MST
Astronomical Twilight 5:52 AM MST 6:30 PM MST
Moon 7:21 PM MST (12/19) 8:50 AM MST (12/19)
Length of Visible Light 10h 25m
Length of Day
9h 25m
Waning Gibbous, 95% of the Moon is Illuminated
Dec 19
Waning Gibbous
Dec 25
Last Quarter
Jan 1
New
Jan 7
First Quarter
Jan 15
Full

Hourly Weather History & Observations

Time (MST) Temp. Windchill Dew Point Humidity Pressure Visibility Wind Dir Wind Speed Gust Speed Precip Events Conditions
12:53 AM 23.0 °F 14.7 °F 19.9 °F 88% 29.99 in 7.0 mi North 6.9 mph - N/A   Overcast
1:53 AM 25.0 °F 14.2 °F 21.9 °F 88% 29.94 in 7.0 mi SE 11.5 mph - N/A   Overcast
2:12 AM 21.9 °F 11.7 °F 19.9 °F 92% 29.84 in 4.0 mi South 9.2 mph - N/A   Scattered Clouds
2:53 AM 19.9 °F 12.1 °F 18.0 °F 92% 29.91 in 3.0 mi NE 5.8 mph - N/A   Clear
3:53 AM 19.9 °F 8.6 °F 18.0 °F 92% 29.88 in 3.0 mi ENE 10.4 mph - N/A   Clear
4:53 AM 19.9 °F 12.1 °F 17.1 °F 89% 29.84 in 5.0 mi SW 5.8 mph - N/A   Clear
5:53 AM 16.0 °F 7.4 °F 14.0 °F 92% 29.82 in 4.0 mi NW 5.8 mph - N/A   Clear
6:53 AM 21.0 °F 13.4 °F 19.0 °F 92% 29.78 in 5.0 mi ENE 5.8 mph - N/A   Clear
7:53 AM 18.0 °F 11.1 °F 16.0 °F 92% 29.81 in 3.0 mi East 4.6 mph - N/A   Clear
8:53 AM 19.9 °F 13.4 °F 17.1 °F 89% 29.80 in 3.0 mi ESE 4.6 mph - N/A   Clear
9:53 AM 19.0 °F - 16.0 °F 88% 29.84 in 4.0 mi Calm Calm - N/A   Clear
10:53 AM 24.1 °F 19.7 °F 19.0 °F 81% 29.83 in 4.0 mi East 3.5 mph - N/A   Haze
11:53 AM 28.9 °F - 23.0 °F 78% 29.81 in 4.0 mi Calm Calm - N/A   Haze
12:53 PM 27.0 °F 21.6 °F 23.0 °F 85% 29.78 in 3.0 mi North 4.6 mph - N/A   Clear
1:53 PM 32.0 °F - 23.0 °F 69% 29.74 in 4.0 mi Calm Calm - N/A   Haze
2:53 PM 28.9 °F - 25.0 °F 85% 29.78 in 4.0 mi Calm Calm - N/A   Partly Cloudy
3:53 PM 28.9 °F - 24.1 °F 82% 29.81 in 4.0 mi Calm Calm - N/A   Haze
4:53 PM 28.0 °F 24.2 °F 25.0 °F 88% 29.82 in 5.0 mi NNE 3.5 mph - N/A   Scattered Clouds
5:53 PM 28.0 °F - 24.1 °F 85% 29.85 in 6.0 mi Calm Calm - N/A   Overcast
6:53 PM 27.0 °F - 24.1 °F 89% 29.84 in 5.0 mi Calm Calm - N/A   Mostly Cloudy
7:53 PM 26.1 °F - 23.0 °F 88% 29.84 in 6.0 mi Calm Calm - N/A   Overcast
8:53 PM 24.1 °F - 21.0 °F 88% 29.84 in 5.0 mi Calm Calm - N/A   Clear
9:53 PM 23.0 °F - 19.9 °F 88% 29.87 in 4.0 mi Calm Calm - N/A   Overcast
10:53 PM 25.0 °F - 23.0 °F 92% 29.84 in 4.0 mi Calm Calm - N/A   Overcast
11:53 PM 24.1 °F 16.0 °F 21.9 °F 91% 29.84 in 4.0 mi WNW 6.9 mph - N/A   Overcast